LFLPLFLB

Guest
Details From LFLP - Meythet
To LFLB - Aix-les-bains
Flight Number -
Tags Generated
Created
Modified
Stats Distance 20 nm / 37 km
Max Altitude 0 ft / 0 m
Waypoints 2
Social Downloads 2
Likes 0
Share VATSIM

Download

Looking for another format? Having issues loading an existing format? Contact us
Advertisement - Login to hide

Notes

Generated

Route

LFLP LFLB

ID Type Via Altitude Latitude Longitude Leg Dist Tot Dist Heading (true) Name
O LFLP APT - 0 ft / 0 m 45.93156˚ 6.10400˚ - 0 nm - Annecy Haute-Sovoie Mont Blanc Meythet
O LFLB APT - 0 ft / 0 m 45.63794˚ 5.88121˚ 19 nm 19 nm 208° / 208° Aix-Les-Bains

Altitude Profile

Advertisement - Login to hide

LFLP

Details ICAO LFLP (NCY)
Name Annecy Haute-Sovoie Mont Blanc Meythet
Region France
Timezone Europe/Paris (UTC+2.0)
Stats Elevation 1,520 ft / 463 m (AMSL)
Location 45.928820° 6.099601°
Runways 2
Magnetic Variation 1.793° E

METAR

LFLP 241030Z AUTO VRB02KT CAVOK 21/13 Q1019 NOSIG

Decode

TAF

TAF LFLP 240800Z 2409/2509 25006KT CAVOK TEMPO 2409/2418 FEW050

Decode

Departure Runways

ID Width Length Bearing (true) Bearing (mag) Surface Threshold Offset Overrun Length
04 98 ft / 30 m 5,290 ft / 1,612 m 38.51° 36.72° Asphalt 820 ft / 250 m 0 ft / 0 m
22 98 ft / 30 m 5,290 ft / 1,612 m 218.52° 216.73° Asphalt 755 ft / 230 m 0 ft / 0 m
22C 230 ft / 70 m 2,783 ft / 848 m 218.40° 216.61° Grass 0 ft / 0 m 0 ft / 0 m
4C 230 ft / 70 m 2,783 ft / 848 m 38.40° 36.61° Grass 0 ft / 0 m 0 ft / 0 m

LFLB

Details ICAO LFLB (CMF)
Name Aix-Les-Bains
Region France
Timezone Europe/Paris (UTC+2.0)
Stats Elevation 779 ft / 237 m (AMSL)
Location 45.636234° 5.880898°
Runways 2
Magnetic Variation 1.743° E

METAR

LFLB 241030Z AUTO 36006KT CAVOK 21/15 Q1018 TEMPO FEW050CB

Decode

TAF

TAF LFLB 240500Z 2406/2506 VRB02KT CAVOK TEMPO 2406/2407 6000 BKN004 TEMPO 2412/2419 FEW050CB PROB30 TEMPO 2503/2506 3000 BR BKN004

Decode

Destination Runways

ID Width Length Bearing (true) Bearing (mag) Surface Threshold Offset Overrun Length
18 148 ft / 45 m 5,452 ft / 1,662 m 176.72° 174.98° Asphalt 26 ft / 8 m 774 ft / 236 m
18L 197 ft / 60 m 2,309 ft / 704 m 176.70° 174.96° Grass 0 ft / 0 m 0 ft / 0 m
36 148 ft / 45 m 5,452 ft / 1,662 m 356.72° 354.98° Asphalt 23 ft / 7 m 456 ft / 139 m
36R 197 ft / 60 m 2,309 ft / 704 m 356.70° 354.96° Grass 315 ft / 96 m 0 ft / 0 m

Approach Navaids

Runway Type Ident Frequency Range Bearing (true) Bearing (mag) Slope Elevation
18 Localiser CY 109.50 MHz 27 nm / 50 km 176.73° 174.99° - 779 ft / 237 m (AMSL)
18 Glidescope CY 109.50 MHz 27 nm / 50 km 176.73° 174.99° 4.46° 779 ft / 237 m (AMSL)
18 DME CY 109.50 MHz 27 nm / 50 km - - - 779 ft / 237 m (AMSL)

Popular Alternatives